Weather History for Cape Girardeau, MO

Change the Weather History Date:

Monday, December 17, 2012

  Actual Average Record
Temperature  
Mean Temperature 47 °F 35 °F  
Max Temperature 53 °F 44 °F 66 °F (1984)
Min Temperature 41 °F 27 °F 4 °F (2000)
Degree Days  
Heating Degree Days 18 30  
Month to date heating degree days 272 467  
Since 1 July heating degree days 1211 1318  
Cooling Degree Days 0 0  
Month to date cooling degree days 0 0  
Year to date cooling degree days 1784 1453  
Moisture  
Dew Point 45 °F    
Average Humidity 88    
Maximum Humidity 100    
Minimum Humidity 76    
Precipitation  
Precipitation 0.00 in 0.13 in 1.21 in (2001)
Month to date precipitation 0.90 2.44  
Year to date precipitation 26.18 45.00  
Sea Level Pressure  
Sea Level Pressure 29.70 in    
Wind  
Wind Speed 6 mph (WNW)    
Max Wind Speed 14 mph    
Max Gust Speed 17 mph    
Visibility 4 miles    
Events Fog    
T = Trace of Precipitation, MM = Missing Value Source: NWS Daily Summary

Daily Weather History Graph

Daily Weather History Graph

Search for Another Location

Airport:

Trip Planner

Search our weather history database for the weather conditions in past years. The results will help you decide how hot, cold, wet, or windy it might be!

Date:

Astronomy

Dec. 17, 2012 Rise Set
Actual Time 7:06 AM CST 4:42 PM CST
Civil Twilight 6:37 AM CST 5:12 PM CST
Nautical Twilight 6:04 AM CST 5:44 PM CST
Astronomical Twilight 5:32 AM CST 6:16 PM CST
Moon 10:20 AM CST (12/17) 9:58 PM CST (12/17)
Length of Visible Light 10h 34m
Length of Day
9h 36m
Waxing Crescent, 25% of the Moon is Illuminated
Dec 17
Waxing Crescent
Dec 19
First Quarter
Dec 28
Full
Jan 4
Last Quarter
Jan 11
New

Hourly Weather History & Observations

Time (CST) Temp. Windchill Dew Point Humidity Pressure Visibility Wind Dir Wind Speed Gust Speed Precip Events Conditions
12:53 AM 52.0 °F - 51.1 °F 97% 29.71 in 5.0 mi SW 4.6 mph - N/A   Mostly Cloudy
1:08 AM 51.8 °F - 51.8 °F 100% 29.71 in 6.0 mi SW 3.5 mph - N/A   Overcast
1:40 AM 50.0 °F - 50.0 °F 100% 29.71 in 2.5 mi Calm Calm - N/A   Mostly Cloudy
1:53 AM 50.0 °F - 48.9 °F 96% 29.70 in 1.5 mi WNW 3.5 mph - N/A   Mostly Cloudy
2:23 AM 48.2 °F - 48.2 °F 100% 29.70 in 2.0 mi Calm Calm - N/A   Mostly Cloudy
2:29 AM 48.2 °F - 48.2 °F 100% 29.70 in 0.8 mi Calm Calm - N/A   Overcast
2:37 AM 48.2 °F - 46.4 °F 93% 29.70 in 0.5 mi Calm Calm - N/A Fog Fog
2:53 AM 48.9 °F - 48.0 °F 97% 29.70 in 0.2 mi Calm Calm - N/A Fog Fog
3:45 AM 48.2 °F - 46.4 °F 93% 29.70 in 1.0 mi Calm Calm - N/A   Mist
3:49 AM 48.2 °F - 46.4 °F 93% 29.69 in 3.0 mi Calm Calm - N/A   Overcast
3:53 AM 48.0 °F - 48.0 °F 100% 29.69 in 3.0 mi Calm Calm - N/A   Overcast
4:03 AM 46.4 °F 45.2 °F 46.4 °F 100% 29.67 in 1.8 mi SE 3.5 mph - N/A   Overcast
4:19 AM 48.2 °F - 46.4 °F 93% 29.67 in 0.5 mi Calm Calm - N/A Fog Fog
4:40 AM 48.2 °F - 46.4 °F 93% 29.66 in 1.5 mi Calm Calm - N/A   Overcast
4:53 AM 48.0 °F - 46.9 °F 96% 29.66 in 0.5 mi Calm Calm - N/A Fog Fog
5:53 AM 46.9 °F - 46.9 °F 100% 29.66 in 0.5 mi Calm Calm - N/A Fog Fog
6:27 AM 48.2 °F - 46.4 °F 93% 29.63 in 0.2 mi East 4.6 mph - N/A Fog Fog
6:53 AM 46.9 °F - 46.0 °F 97% 29.65 in 0.8 mi WNW 8.1 mph - N/A   Mist
7:00 AM 46.4 °F 42.9 °F 46.4 °F 100% 29.65 in 1.5 mi NW 6.9 mph - N/A   Overcast
7:16 AM 46.4 °F 44.3 °F 46.4 °F 100% 29.65 in 2.0 mi NW 4.6 mph - N/A   Overcast
7:44 AM 46.4 °F - 46.4 °F 100% 29.65 in 1.8 mi Calm Calm - N/A   Overcast
7:53 AM 46.0 °F 43.1 °F 45.0 °F 96% 29.66 in 2.0 mi WNW 5.8 mph - N/A   Overcast
9:53 AM 46.0 °F 43.1 °F 45.0 °F 96% 29.69 in 3.0 mi WNW 5.8 mph - N/A   Overcast
10:53 AM 46.0 °F 43.9 °F 45.0 °F 96% 29.68 in 4.0 mi NW 4.6 mph - N/A   Overcast
11:15 AM 46.4 °F 42.4 °F 44.6 °F 93% 29.67 in 4.0 mi NNW 8.1 mph - N/A   Overcast
11:53 AM 46.9 °F - 44.1 °F 90% 29.66 in 5.0 mi NNW 9.2 mph - N/A   Overcast
12:53 PM 46.0 °F 41.0 °F 43.0 °F 89% 29.65 in 5.0 mi NW 10.4 mph - N/A   Overcast
1:53 PM 46.0 °F 41.4 °F 42.1 °F 86% 29.65 in 9.0 mi NW 9.2 mph - N/A   Overcast
2:06 PM 46.4 °F 41.5 °F 42.8 °F 87% 29.65 in 9.0 mi NW 10.4 mph - N/A   Overcast
2:53 PM 45.0 °F 39.3 °F 41.0 °F 86% 29.68 in 8.0 mi NW 11.5 mph - N/A   Overcast
3:53 PM 45.0 °F 41.2 °F 42.1 °F 90% 29.70 in 6.0 mi WNW 6.9 mph - N/A   Overcast
6:53 PM 45.0 °F 41.2 °F 39.9 °F 82% 29.76 in 10.0 mi NW 6.9 mph - N/A   Overcast
7:53 PM 44.1 °F 39.5 °F 37.9 °F 79% 29.77 in 10.0 mi NW 8.1 mph - N/A   Overcast
8:53 PM 44.1 °F 40.1 °F 37.0 °F 76% 29.79 in 10.0 mi NW 6.9 mph - N/A   Overcast
9:53 PM 43.0 °F 41.3 °F 37.9 °F 82% 29.80 in 10.0 mi WNW 3.5 mph - N/A   Overcast
10:53 PM 43.0 °F 40.3 °F 39.0 °F 86% 29.83 in 10.0 mi West 4.6 mph - N/A   Overcast
11:53 PM 42.1 °F 37.1 °F 36.0 °F 79% 29.83 in 10.0 mi West 8.1 mph - N/A   Overcast